GALAXY 37 (G-37)

Last updated on Sat Aug 15 2026 00:03:03 GMT+0000 (Coordinated Universal Time)

1 57493U 23112A 26226.54283596 .00000000 00000+0 00000+0 0 9995 2 57493 0.0195 117.7679 0001954 26.8599 246.7576 1.00270004 11127
UTC large
Height (km)
Speed (km/s)
/
Latitude / Longitude
Inclination (degrees)
Orbital Period (minutes)
Azimuth
Elevation
Range (km)
Doppler Factor

Next 0 passes for location: London (51.5072 / 0.1276)

No passes found over London.
GALAXY 37 (G-37)